Wind_Speed
12 12 13 11 11 12 12 13 13 12 12 13 14 14 14 15 15 15 15 15 15 15 15 14 14 15 16 18 19 19 19 19 19 19 18 18 17 17 16 16 17 17 17
12 12 12 12 12 12 11 12 12 11 12 13 14 14 14 14 15 14 15 16 16 16 16 16 16 16 17 18 18 19 19 19 19 19 19 19 18 18 18 18 19 18 18
12 11 11 12 12 12 13 13 13 12 13 13 13 14 14 15 15 16 16 16 17 17 17 17 16 16 17 18 19 20 21 20 20 20 20 20 19 19 19 20 20 20 20
12 12 11 11 12 12 13 13 13 13 13 14 14 14 15 16 16 17 17 17 18 18 18 18 17 17 18 18 18 19 20 21 21 21 21 20 20 20 20 21 21 21 21
12 12 11 12 12 12 12 13 13 14 14 15 15 15 16 17 17 18 18 18 18 19 19 19 19 18 18 18 18 19 21 22 22 22 21 22 22 21 21 21 22 22 22
13 12 12 13 13 12 12 13 13 14 15 15 16 16 17 17 18 19 19 19 19 19 19 19 19 19 18 18 19 19 20 22 22 23 23 23 23 22 23 23 23 23 23
13 12 13 13 13 13 13 13 13 14 15 16 17 17 17 18 19 20 20 21 20 20 19 19 19 19 19 20 19 20 20 21 23 22 23 24 25 24 24 24 24 24 25
13 14 14 14 14 13 13 14 15 15 15 16 17 18 18 18 19 20 21 22 21 21 20 20 20 20 20 20 20 21 21 21 22 22 23 24 24 24 24 25 25 25 25
14 14 14 15 15 15 14 15 16 16 16 16 17 17 17 18 19 19 21 22 22 22 22 21 22 22 22 21 21 22 22 22 22 23 24 25 25 26 25 26 26 26 26
14 15 14 15 15 15 15 16 17 17 18 18 18 18 18 18 18 18 19 20 22 22 22 22 22 22 22 22 22 22 23 23 23 23 24 25 26 26 26 26 26 27 27
15 14 15 15 15 16 16 17 18 18 19 19 19 18 18 18 17 17 18 19 20 20 21 22 23 23 23 22 22 23 24 24 24 24 25 25 25 26 26 27 27 27 28
15 15 15 15 16 16 17 17 18 18 19 19 18 18 17 17 17 18 18 18 19 19 20 21 22 23 23 23 23 24 24 24 24 24 24 25 25 25 26 26 27 27 27
15 16 16 16 16 17 17 18 18 18 18 18 18 18 18 18 18 19 18 19 19 20 21 21 22 23 24 24 24 24 24 25 25 24 25 25 25 26 26 26 27 28 28
15 15 16 16 17 17 17 18 18 18 18 18 19 19 19 19 19 19 19 19 20 20 21 22 22 23 25 24 24 24 24 25 25 25 25 25 25 26 26 27 28 28 29
15 15 16 16 17 18 18 18 18 19 19 19 19 19 19 19 20 20 20 21 21 21 21 22 23 24 24 25 24 24 25 25 26 26 25 25 26 26 27 27 28 28 29
15 15 16 16 17 18 19 19 19 19 19 19 18 18 18 19 20 20 21 21 22 23 23 24 24 23 24 24 25 25 25 25 25 25 25 25 25 26 27 27 28 28 29
15 15 16 17 18 19 20 20 19 18 18 18 18 18 18 18 19 19 20 21 21 22 23 23 23 23 23 24 25 25 25 25 24 24 24 25 25 25 26 27 27 28 28
16 16 17 18 19 19 20 19 18 18 18 17 18 18 18 18 18 19 20 21 21 21 21 21 22 22 23 23 23 23 23 23 23 24 24 24 25 25 25 26 27 28 28
17 18 18 19 18 19 19 19 18 18 17 17 17 18 18 19 19 20 20 21 21 21 21 20 21 21 21 22 22 22 23 23 23 24 24 24 24 25 25 25 26 27 27
18 19 19 19 19 19 19 19 19 19 18 18 18 18 18 18 18 19 19 19 19 19 20 20 20 20 20 21 21 21 22 23 24 24 23 24 24 24 24 25 25 26 26
19 19 19 19 20 19 19 19 19 19 18 17 17 17 18 17 17 18 18 18 19 18 18 19 19 19 19 20 20 20 21 22 22 22 22 23 23 23 23 24 24 24 25
19 20 20 20 20 20 19 19 20 19 18 17 17 17 17 16 17 18 18 18 18 17 17 18 18 18 18 19 20 20 21 21 21 21 21 21 22 22 23 23 23 23 23
20 20 20 20 20 20 20 20 19 18 18 18 18 18 16 16 16 17 18 18 17 17 17 18 18 18 18 18 19 19 19 19 20 20 20 20 20 21 21 21 21 21 22
21 21 21 21 20 20 20 20 19 18 18 18 18 18 17 17 17 18 18 18 17 17 17 17 17 17 18 18 18 18 18 18 19 19 19 19 19 20 20 20 20 19 19
22 22 21 21 20 20 20 20 19 19 19 19 18 18 18 17 17 18 18 18 18 18 17 17 17 17 17 17 17 17 18 18 17 17 17 18 18 19 19 19 19 19 18
22 22 22 21 21 20 20 19 19 19 19 19 18 18 18 18 17 17 18 18 17 18 18 17 17 17 17 17 18 18 17 17 17 16 16 17 17 18 18 19 18 18 17
Wind_Direction
298 298 295 294 289 285 282 278 274 268 267 264 261 259 252 247 248 250 248 250 251 249 250 250 253 255 255 253 251 251 252 249 246 245 248 250 250 248 246 245 248 249 250
298 298 294 292 289 287 284 278 272 268 264 262 263 262 258 249 249 253 252 254 255 254 254 253 254 256 254 256 255 252 252 251 249 247 247 248 250 250 248 246 248 249 251
297 296 292 290 290 285 282 277 270 267 265 264 262 260 258 253 250 252 253 255 256 255 255 256 256 256 256 257 257 256 254 252 251 250 250 249 249 251 251 250 249 250 250
296 295 291 291 290 285 279 275 271 268 266 264 262 260 258 258 257 254 255 256 256 255 256 258 256 259 260 259 261 260 256 253 252 250 249 250 249 249 251 250 249 250 250
295 293 291 295 294 289 284 277 274 272 269 265 263 261 259 259 260 259 258 258 258 257 257 257 258 262 261 261 262 260 256 255 255 252 252 252 252 252 251 251 252 252 251
296 297 297 295 293 290 286 282 278 276 273 268 265 263 261 261 261 259 259 261 259 259 258 259 259 261 262 262 261 260 259 257 256 255 255 254 254 255 253 253 253 254 253
293 299 301 297 292 286 284 282 280 280 278 273 268 266 263 261 259 258 259 261 259 259 260 261 261 262 261 261 260 262 262 260 257 256 256 256 255 255 255 255 253 253 254
293 289 294 295 291 284 283 282 281 280 278 276 273 268 266 263 260 257 257 257 260 259 261 262 263 262 263 261 260 261 261 261 258 257 257 258 257 256 255 254 254 255 255
291 290 292 293 290 284 281 281 282 280 277 277 277 273 270 267 263 260 259 258 258 261 262 263 262 261 262 262 263 262 261 261 263 261 258 258 258 257 256 256 256 257 258
294 290 287 288 288 284 281 283 283 282 279 276 274 274 273 273 269 265 262 263 260 261 261 262 263 262 263 262 263 263 263 263 263 264 261 259 258 257 257 258 257 257 257
293 289 288 285 285 282 281 283 283 282 280 278 275 274 273 273 270 270 267 264 264 264 262 261 262 262 264 264 265 263 264 264 264 265 264 262 259 259 259 259 258 258 258
288 288 287 284 286 285 282 287 287 285 282 280 276 274 272 270 269 268 267 266 267 266 264 263 261 263 264 265 266 266 266 265 264 264 265 264 261 260 260 259 258 258 258
290 288 287 287 287 286 284 289 291 287 282 277 274 272 271 269 269 268 267 266 265 267 267 264 263 265 264 266 267 268 267 266 265 265 265 264 263 263 262 261 259 257 257
288 286 288 288 288 288 288 289 289 286 282 277 275 272 270 268 268 267 267 266 264 265 267 267 265 266 267 268 268 268 269 268 268 268 266 265 264 264 264 262 260 258 258
291 290 290 291 291 290 290 290 288 286 283 281 277 272 270 267 266 267 267 268 266 266 266 269 268 267 267 267 269 270 270 270 270 270 269 267 265 265 265 263 261 260 260
294 296 294 293 294 293 290 290 288 284 282 280 277 272 270 269 268 268 269 270 270 269 267 268 270 270 268 269 271 271 271 270 271 271 270 268 266 266 265 264 261 261 261
298 297 298 297 295 294 291 289 286 285 282 280 277 272 269 269 272 272 274 273 273 272 270 269 270 272 272 271 270 271 271 270 270 271 271 270 268 267 266 264 262 261 263
296 297 297 298 297 293 290 288 285 283 282 281 278 273 270 272 275 276 275 275 275 275 271 270 272 272 272 271 271 271 271 271 271 271 271 270 270 269 268 267 264 263 262
295 297 299 299 297 293 290 288 288 286 284 281 278 275 274 274 277 278 277 276 276 275 272 270 271 272 271 272 273 272 272 272 273 272 272 271 271 271 271 270 267 264 264
296 297 297 297 296 292 288 285 286 285 283 281 280 279 278 277 279 279 279 278 277 277 276 273 272 273 273 273 275 274 273 272 272 272 272 272 272 272 273 273 271 268 267
296 297 296 296 296 294 289 285 284 284 282 281 281 280 279 279 279 279 278 280 279 277 276 275 274 274 274 275 278 278 275 272 272 273 273 273 272 272 273 274 273 271 270
294 297 296 296 295 292 290 287 284 282 279 277 278 279 277 277 277 278 278 280 279 277 277 277 276 275 275 276 278 280 279 275 273 273 274 273 271 272 273 275 275 273 272
293 297 297 296 293 290 288 285 285 281 278 279 279 279 276 274 275 278 278 278 277 277 279 280 280 281 279 277 277 281 283 281 278 276 275 274 272 273 274 274 275 275 274
291 294 295 295 294 290 286 283 282 279 278 279 279 279 277 275 274 278 276 276 276 276 279 283 285 283 280 278 277 281 283 282 282 279 275 274 274 274 274 275 274 276 275
289 291 293 293 292 289 285 282 280 278 277 277 281 281 278 276 277 278 275 273 273 274 276 281 285 284 281 277 276 279 282 285 285 282 277 277 276 276 275 278 276 275 275
286 288 290 291 290 287 286 283 279 276 276 275 278 279 279 275 277 279 276 273 274 276 276 279 283 283 281 279 277 279 281 283 284 283 280 280 279 278 275 276 278 278 275
Height
5852 5851 5850 5850 5849 5848 5848 5848 5849 5849 5850 5851 5852 5853 5854 5855 5855 5857 5858 5858 5859 5861 5862 5863 5864 5865 5866 5867 5868 5869 5871 5872 5873 5875 5876 5877 5878 5879 5880 5882 5884 5885 5886
5849 5848 5847 5847 5846 5845 5845 5845 5845 5846 5847 5848 5848 5849 5850 5851 5852 5853 5854 5855 5856 5857 5858 5859 5860 5861 5862 5863 5864 5865 5867 5868 5869 5871 5872 5873 5874 5875 5876 5878 5879 5881 5882
5846 5845 5844 5844 5843 5842 5842 5842 5842 5843 5844 5844 5845 5846 5847 5848 5849 5850 5850 5851 5852 5853 5854 5855 5856 5857 5858 5859 5860 5861 5862 5863 5865 5866 5867 5868 5869 5871 5872 5873 5874 5876 5877
5843 5842 5841 5841 5840 5839 5839 5839 5839 5839 5840 5841 5842 5842 5843 5844 5845 5846 5846 5847 5848 5849 5850 5851 5852 5852 5853 5854 5855 5856 5857 5858 5859 5861 5862 5863 5865 5866 5867 5868 5869 5871 5872
5840 5839 5839 5838 5837 5836 5836 5836 5836 5836 5836 5837 5838 5838 5839 5839 5840 5841 5842 5843 5843 5844 5845 5846 5847 5848 5849 5850 5850 5851 5852 5853 5854 5856 5857 5858 5859 5861 5862 5863 5864 5866 5867
5837 5836 5835 5835 5834 5833 5833 5832 5832 5832 5832 5833 5833 5834 5834 5835 5836 5837 5838 5838 5839 5840 5841 5841 5842 5843 5844 5845 5845 5846 5847 5848 5849 5850 5851 5853 5854 5855 5856 5857 5859 5860 5861
5834 5833 5832 5831 5830 5830 5829 5829 5829 5829 5828 5828 5829 5829 5830 5830 5831 5832 5833 5833 5834 5835 5836 5836 5837 5838 5839 5840 5841 5841 5842 5843 5844 5844 5845 5847 5848 5849 5850 5851 5853 5854 5856
5830 5829 5829 5828 5827 5826 5825 5825 5825 5825 5824 5824 5824 5824 5825 5826 5826 5827 5828 5828 5829 5830 5831 5831 5832 5833 5834 5834 5835 5836 5836 5837 5838 5838 5839 5840 5842 5843 5844 5845 5846 5847 5849
5827 5826 5825 5824 5823 5822 5822 5821 5821 5820 5820 5819 5819 5820 5820 5820 5821 5822 5822 5823 5824 5824 5825 5826 5826 5827 5828 5829 5829 5830 5831 5831 5832 5832 5833 5834 5835 5836 5837 5838 5840 5841 5842
5823 5822 5821 5820 5819 5818 5818 5817 5816 5816 5815 5814 5814 5814 5815 5815 5815 5816 5817 5817 5818 5818 5819 5820 5820 5821 5821 5822 5823 5824 5824 5825 5826 5826 5827 5828 5829 5830 5831 5831 5833 5834 5835
5819 5818 5817 5816 5815 5814 5813 5812 5812 5811 5810 5809 5809 5809 5809 5809 5810 5811 5811 5812 5812 5813 5813 5814 5814 5815 5815 5816 5817 5818 5818 5819 5819 5820 5820 5821 5822 5822 5823 5824 5825 5826 5827
5815 5814 5812 5811 5810 5809 5809 5808 5806 5805 5805 5804 5804 5804 5804 5805 5805 5805 5806 5806 5807 5807 5807 5808 5808 5809 5809 5810 5810 5811 5811 5812 5812 5813 5814 5814 5815 5815 5816 5817 5817 5818 5819
5811 5810 5808 5807 5806 5805 5804 5803 5801 5801 5800 5799 5799 5799 5799 5800 5800 5800 5801 5801 5801 5802 5802 5802 5802 5803 5803 5803 5804 5804 5804 5805 5805 5806 5807 5807 5807 5808 5808 5809 5810 5811 5812
5806 5805 5804 5803 5801 5800 5799 5797 5796 5795 5794 5794 5794 5794 5794 5795 5795 5795 5796 5796 5796 5796 5796 5796 5796 5796 5797 5797 5797 5797 5798 5798 5799 5799 5799 5799 5800 5800 5800 5801 5801 5802 5803
5802 5801 5799 5798 5796 5795 5794 5792 5791 5790 5789 5789 5788 5788 5789 5789 5789 5789 5790 5790 5790 5790 5791 5790 5790 5790 5790 5790 5791 5791 5791 5791 5791 5791 5791 5792 5792 5792 5792 5792 5793 5794 5795
5798 5797 5795 5794 5792 5791 5789 5787 5786 5785 5784 5783 5783 5783 5783 5783 5783 5783 5783 5783 5783 5784 5784 5784 5784 5783 5783 5784 5784 5784 5784 5784 5784 5784 5784 5784 5784 5784 5784 5785 5785 5786 5786
5794 5793 5791 5789 5787 5786 5784 5782 5780 5779 5778 5778 5777 5777 5778 5778 5778 5777 5777 5777 5777 5777 5777 5777 5777 5777 5776 5777 5777 5776 5776 5776 5776 5776 5776 5776 5776 5776 5776 5777 5777 5777 5778
5790 5789 5787 5784 5782 5780 5778 5776 5775 5774 5773 5773 5772 5772 5772 5772 5772 5772 5772 5771 5771 5771 5770 5771 5770 5770 5769 5769 5769 5769 5768 5768 5768 5768 5768 5768 5768 5768 5768 5768 5769 5769 5769
5786 5784 5782 5780 5777 5775 5773 5771 5770 5769 5768 5768 5767 5767 5767 5767 5767 5766 5766 5766 5765 5765 5764 5764 5764 5763 5762 5762 5762 5762 5761 5761 5761 5760 5760 5760 5760 5760 5760 5760 5760 5760 5761
5781 5779 5777 5774 5772 5770 5768 5766 5765 5764 5763 5762 5762 5761 5761 5761 5761 5761 5760 5760 5759 5759 5758 5758 5757 5757 5756 5755 5755 5755 5754 5754 5754 5753 5753 5753 5753 5753 5753 5753 5752 5752 5752
5776 5774 5771 5769 5766 5764 5763 5761 5759 5758 5757 5757 5756 5756 5755 5755 5755 5755 5755 5754 5754 5753 5752 5751 5751 5750 5750 5749 5748 5748 5747 5747 5747 5746 5746 5746 5746 5746 5746 5745 5745 5745 5745
5771 5769 5766 5764 5761 5759 5757 5755 5754 5753 5752 5752 5752 5751 5750 5750 5750 5750 5750 5749 5749 5748 5747 5746 5745 5744 5744 5743 5743 5742 5741 5741 5740 5740 5739 5739 5738 5739 5739 5738 5738 5738 5737
5765 5763 5761 5758 5756 5754 5752 5750 5749 5748 5747 5747 5747 5746 5745 5745 5745 5745 5745 5744 5744 5743 5743 5741 5740 5739 5738 5738 5737 5736 5735 5734 5734 5733 5732 5732 5732 5732 5732 5732 5731 5731 5730
5760 5758 5755 5753 5751 5748 5746 5745 5744 5743 5742 5742 5741 5741 5740 5741 5740 5740 5740 5739 5739 5738 5737 5736 5735 5734 5733 5732 5731 5731 5730 5729 5728 5727 5726 5726 5726 5725 5725 5725 5725 5725 5724
5754 5752 5750 5747 5745 5743 5741 5740 5739 5738 5737 5737 5736 5736 5736 5735 5735 5734 5734 5734 5733 5733 5732 5732 5730 5729 5728 5727 5726 5725 5724 5723 5722 5721 5720 5720 5720 5719 5719 5719 5719 5719 5718
5747 5745 5744 5742 5739 5738 5736 5735 5734 5733 5732 5732 5731 5731 5731 5730 5730 5729 5729 5728 5728 5728 5728 5727 5726 5724 5723 5722 5721 5720 5719 5718 5717 5716 5715 5715 5714 5713 5714 5714 5713 5713 5713